Regional Weather Roundup
Issued by NWS Kansas City/Pleasant Hill, MO

Home | Current Version | Previous Version | Graphics & Text | Print | Product List | Glossary Off
Versions: 1 2 3 4 5 6 7 8 9 10 11 12 13 14 15 16 17 18 19 20 21 22 23 24 25 26 27

000
ASUS43 KEAX 202110
RWREAX

WEATHER ROUNDUP FOR EASTERN KANSAS AND NORTHWEST MISSOURI
NATIONAL WEATHER SERVICE KANSAS CITY/PLEASANT HILL MO
400 PM CDT THU JUL 20 2017

KSZ040-057-103>105-MOZ028-029-037-043-202200-
...KANSAS CITY METROPOLITAN AREA...

CITY           SKY/WX    TMP DP  RH WIND       PRES   REMARKS
K.C. INTL      MOSUNNY   96  76  52 S13       29.99F HX 109
K.C. DOWNTOWN  MOSUNNY   98  76  49 SW8       29.96F HX 112
LEES SUMMIT    SUNNY     96  74  48 SW14      30.01S HX 107
OLATHE - IXD   SUNNY     96  74  48 S14       30.01S HX 107
OLATHE - OJC   SUNNY     93  77  59 S10       30.01F HX 107
LAWRENCE       SUNNY     99  74  44 S14G20    29.97F HX 110

$$

MOZ001>008-011>017-020>025-030>033-038>040-044>046-053-054-202200-
...NORTHERN AND CENTRAL MISSOURI...

CITY           SKY/WX    TMP DP  RH WIND       PRES   REMARKS
ST. JOSEPH     SUNNY     94  80  64 S12       29.96F HX 113
MOSBY          CLEAR     95  72  46 S9        29.98F HX 103
WARRENSBURG    SUNNY     95  72  46 S13       30.00F HX 103
WHITEMAN AFB   MOSUNNY   97  74  46 SW10G20   29.99F HX 108
CLINTON        SUNNY     93  77  59 SW9       30.02F HX 107
SEDALIA        NOT AVBL
WARSAW         NOT AVBL
CHILLICOTHE      N/A     96  79  57 VRB6      29.98F HX 114
KIRKSVILLE     SUNNY     95  78  58 SW10      29.99F HX 111

$$

MOZ041-047>049-056>058-063>065-088>090-097-202200-
...EASTERN AND SOUTHERN MISSOURI...

CITY           SKY/WX    TMP DP  RH WIND       PRES   REMARKS
ST. LOUIS INTL MOSUNNY  101  68  34 W12       30.00F HX 106
SPIRIT OF STL  MOSUNNY   99  70  38 SW7       29.98F HX 106
COLUMBIA       SUNNY     97  72  44 SW12      30.01F HX 105
JEFFERSON CITY MOSUNNY   96  72  45 VRB5      29.99F HX 104
ROLLA          SUNNY     94  71  47 S8        30.04F HX 101
OSAGE BEACH    SUNNY     99  69  37 W6        30.02F HX 105
SPRINGFIELD    SUNNY     95  68  41 SW9       30.06F HX  99
BRANSON        MOSUNNY   95  70  43 W5        30.09F HX 101
JOPLIN         SUNNY     97  73  45 SW9       30.04F HX 107
WEST PLAINS    SUNNY     94  66  39 SW6       30.08F HX  97

$$

IAZ060-094-KSZ022-034>040-054-083-096-NEZ052-066-093-202200-
...KANSAS...SOUTHEAST NEBRASKA AND IOWA...

CITY           SKY/WX    TMP DP  RH WIND       PRES   REMARKS
TOPEKA         SUNNY     99  74  44 S12       29.96F HX 110
MANHATTAN      MOSUNNY  104  69  32 SW15G22   29.94F HX 111
EMPORIA        MOSUNNY   99  67  35 S12G22    29.98F HX 103
CHANUTE        SUNNY     99  71  40 S13G25    30.01F HX 107
WICHITA        MOSUNNY  102  64  28 S13       29.96F HX 105
OMAHA          MOSUNNY   97  71  42 SE6       29.94F HX 104
LINCOLN        SUNNY     95  74  50 S10       29.95F HX 105
FALLS CITY     SUNNY     96  77  54 SE12      29.94F HX 111
LAMONI         SUNNY     93  80  65 SW10      29.97F HX 112
DES MOINES     MOSUNNY   98  73  44 SW7       29.93S HX 108

$$





USA.gov is the U.S. government's official web portal to all federal, state and local government web resources and services.